DW9012 Weather Reports


Display with metric or nautical units.
time (UTC)temp
F
wind
direction
speed
MPH
gust
MPH
rain 1hr
in
rain 24hr
in
rain mn
in
humidity
%
barometer
mb
20260507144522 49 313 5.0 9.0 0.00 0.24 0.18 78 997.9
20260507143012 49 290 3.0 10.0 0.00 0.24 0.18 77 997.8
20260507141507 48 304 6.0 13.0 0.00 0.24 0.18 80 997.8
20260507140004 46 302 5.0 9.0 0.00 0.24 0.18 83 997.9
20260507134501 46 271 5.0 11.0 0.00 0.24 0.18 83 998.1
20260507133132 45 346 7.0 11.0 0.00 0.24 0.18 85 998.2
20260507131556 45 327 7.0 11.0 0.00 0.24 0.18 85 998.3
20260507130106 45 299 6.0 10.0 0.00 0.24 0.18 88 998.6
20260507124548 44 12 2.0 7.0 0.00 0.24 0.18 91 998.6
20260507123045 43 35 4.0 8.0 0.00 0.24 0.18 91 999.0
20260507121547 43 350 4.0 9.0 0.00 0.24 0.18 92 998.9
20260507120052 42 343 5.0 10.0 0.00 0.24 0.18 93 999.3
20260507114603 42 5 3.0 8.0 0.01 0.24 0.18 94 999.4
20260507113035 41 15 4.0 9.0 0.01 0.24 0.18 95 999.4
20260507111535 41 331 5.0 8.0 0.02 0.24 0.18 95 999.7
20260507110031 41 319 2.0 5.0 0.02 0.24 0.18 95 999.8
20260507104529 41 348 0.0 4.0 0.02 0.24 0.17 95 999.9
20260507103027 41 17 2.0 4.0 0.02 0.24 0.17 95 1000.0
20260507101528 41 360 2.0 5.0 0.03 0.23 0.17 95 1000.1
20260507100024 41 339 4.0 6.0 0.05 0.23 0.17 95 1000.3
20260507094521 41 5 2.0 5.0 0.06 0.22 0.16 95 1000.4
20260507093022 41 360 1.0 4.0 0.06 0.21 0.15 95 1000.7
20260507091526 41 360 2.0 4.0 0.06 0.20 0.13 95 1000.9
20260507090023 41 327 1.0 4.0 0.05 0.18 0.12 95 1001.1
20260507084516 41 18 1.0 3.0 0.04 0.17 0.10 95 1001.0
20260507083015 41 50 1.0 4.0 0.03 0.15 0.09 95 1001.1
20260507081513 41 59 2.0 4.0 0.02 0.14 0.08 95 1001.4
20260507080011 41 36 2.0 4.0 0.02 0.13 0.07 95 1001.6
20260507074509 41 22 2.0 4.0 0.02 0.13 0.06 95 1002.1
20260507073006 41 355 1.0 4.0 0.02 0.12 0.06 95 1002.4
20260507071505 41 30 1.0 4.0 0.03 0.12 0.06 95 1002.6
20260507070008 41 59 3.0 5.0 0.02 0.11 0.05 95 1002.6
20260507064502 41 36 2.0 6.0 0.02 0.10 0.04 95 1002.8
20260507063106 41 45 1.0 4.0 0.02 0.09 0.03 95 1003.0
20260507061557 41 26 2.0 4.0 0.02 0.09 0.02 95 1003.4
20260507060056 41 65 2.0 3.0 0.02 0.09 0.02 95 1003.5
20260507054554 41 23 1.0 3.0 0.02 0.08 0.02 95 1003.5
20260507053052 41 111 1.0 3.0 0.02 0.08 0.02 95 1003.9
20260507051552 41 111 2.0 4.0 0.01 0.07 0.01 95 1003.9
20260507050050 41 101 2.0 5.0 0.00 0.06 0.00 95 1003.9
20260507044549 41 101 1.0 5.0 0.00 0.06 0.00 94 1004.2
20260507043047 41 101 2.0 5.0 0.00 0.06 0.00 94 1004.4
20260507041544 41 101 2.0 5.0 0.00 0.06 0.00 94 1004.7
20260507040043 41 79 1.0 7.0 0.00 0.06 0.00 94 1005.1
20260507034540 41 96 3.0 7.0 0.00 0.06 0.06 94 1005.2
20260507033039 41 88 5.0 8.0 0.00 0.06 0.06 94 1005.2
20260507031540 41 99 4.0 8.0 0.01 0.06 0.06 94 1005.4
20260507030038 41 115 3.0 8.0 0.01 0.06 0.06 94 1005.4
20260507024538 41 119 3.0 5.0 0.01 0.06 0.06 94 1005.6
20260507023045 41 89 1.0 8.0 0.02 0.06 0.06 94 1005.8
20260507021543 41 105 4.0 7.0 0.02 0.06 0.06 94 1005.9
20260507020057 41 98 3.0 7.0 0.03 0.06 0.06 94 1006.1
20260507014536 41 78 5.0 7.0 0.04 0.06 0.06 94 1006.4
20260507013047 41 94 2.0 6.0 0.04 0.05 0.05 94 1006.4
20260507011536 41 119 2.0 4.0 0.03 0.04 0.04 93 1006.8
20260507010036 41 102 1.0 6.0 0.02 0.02 0.02 93 1006.9
20260507004538 41 142 2.0 7.0 0.02 0.02 0.02 93 1006.7
20260507003042 41 126 4.0 6.0 0.01 0.02 0.01 92 1006.6
20260507001537 41 101 5.0 10.0 0.01 0.02 0.01 92 1006.7
20260507000035 41 91 4.0 9.0 0.01 0.02 0.01 91 1006.8
20260506234534 41 71 5.0 8.0 0.00 0.03 0.00 91 1006.8
20260506233030 42 90 5.0 9.0 0.00 0.03 0.00 90 1006.8
20260506231529 42 94 2.0 6.0 0.00 0.03 0.00 89 1006.9
20260506230029 42 130 2.0 7.0 0.00 0.03 0.00 88 1006.7
20260506224532 42 122 2.0 6.0 0.00 0.03 0.00 87 1006.8
20260506223040 43 149 3.0 7.0 0.00 0.03 0.00 86 1006.7
20260506221528 43 115 3.0 8.0 0.00 0.03 0.00 84 1006.9
20260506220028 43 135 3.0 7.0 0.00 0.03 0.00 83 1006.7
20260506214537 43 133 4.0 11.0 0.00 0.04 0.00 81 1006.6
20260506213025 43 94 5.0 9.0 0.00 0.04 0.00 78 1006.7
20260506211525 44 119 4.0 11.0 0.00 0.04 0.00 77 1006.7
20260506210027 45 132 5.0 10.0 0.00 0.04 0.00 75 1006.5
20260506204523 45 98 6.0 9.0 0.00 0.04 0.00 72 1006.5
20260506203023 46 179 5.0 9.0 0.00 0.04 0.00 69 1006.4
20260506201523 47 209 5.0 11.0 0.00 0.04 0.00 67 1006.4
20260506200022 48 212 5.0 10.0 0.00 0.04 0.00 61 1006.6
20260506194521 50 188 7.0 12.0 0.00 0.04 0.00 54 1006.6
20260506193020 51 193 4.0 7.0 0.00 0.04 0.00 53 1006.7
20260506191520 51 252 2.0 5.0 0.00 0.04 0.00 57 1006.7
20260506190020 50 315 3.0 5.0 0.00 0.04 0.00 61 1006.5
20260506184537 50 240 3.0 6.0 0.00 0.04 0.00 58 1006.8
20260506183028 49 243 2.0 6.0 0.00 0.04 0.00 55 1007.0
20260506181524 50 184 3.0 7.0 0.00 0.04 0.00 56 1006.9
20260506180017 50 215 3.0 6.0 0.00 0.04 0.00 54 1006.9
20260506174518 50 207 4.0 6.0 0.00 0.04 0.00 54 1007.0
20260506173015 50 288 3.0 7.0 0.00 0.04 0.00 58 1007.0
20260506171516 50 235 3.0 6.0 0.00 0.04 0.00 54 1006.9
20260506170012 49 258 3.0 7.0 0.00 0.04 0.00 60 1007.0
20260506164510 48 229 4.0 9.0 0.00 0.04 0.00 66 1007.2
20260506163009 48 194 4.0 7.0 0.00 0.04 0.00 68 1007.2
20260506161513 48 218 4.0 8.0 0.00 0.04 0.00 66 1007.4
20260506160009 48 275 3.0 6.0 0.00 0.04 0.00 69 1007.2
20260506154507 48 240 4.0 7.0 0.00 0.04 0.00 71 1007.3
20260506153015 47 247 5.0 10.0 0.00 0.04 0.00 73 1007.3
20260506151506 47 227 6.0 10.0 0.00 0.04 0.00 74 1007.3
20260506150004 48 212 7.0 11.0 0.00 0.04 0.00 73 1007.1